Location: PSU-Greenbush Astrophysical Observatory
(37.5140°N, 94.9880°W)
Time: 17:08:26
(UTC-05:00)

CUTE 1.7 + AOD 2 - Pass Details

Date: 26 February 2020
Orbit: 593 x 612 km, 97.6° (Epoch: 06 April)

Event Time Altitude Azimuth Distance (km) Brightness Sun altitude
Rises 05:46:17 0° 8° (N) 2,841 ? -14.6°
Reaches altitude 10° 05:48:28 10° 6° (N) 1,934 ? -14.1°
Maximum altitude 05:52:37 67° 285° (WNW) 646 ? -13.3°
Drops below altitude 10° 05:56:45 10° 202° (SSW) 1,918 ? -12.5°
Sets 05:58:54 0° 200° (SSW) 2,815 ? -12.1°
